When you browse on this site, cookies collect data to enhance your experience and personalize the content and advertising you see.
Visit our Privacy Policy to learn more. By continuing to use the site, you agree to this use of cookies and data.
  • în România
  • Lista ţărilor
  • Pe 7 zile
  • Temperatura apei
  • Meteo pe hartă
  • Widget-uri
  • user-avatar
    Intrare

    Meteo pe oră la Salvador

    Astăzi, 20 Ianuarie, Luni

    Timp Temperatura Precipitaţii Vânt Presiune Umiditate
    00:00 +27°C° 0 mm 4 m/s 755 mmHg 82%
    01:00 +27°C° 0 mm 4 m/s 755 mmHg 82%
    02:00 +27°C° 0 mm 3 m/s 755 mmHg 82%
    03:00 +26°C° 0 mm 3 m/s 755 mmHg 82%
    04:00 +26°C° 0 mm 3 m/s 755 mmHg 82%
    05:00 +26°C° 0 mm 2 m/s 755 mmHg 81%
    06:00 +26°C° 0 mm 2 m/s 755 mmHg 80%
    07:00 +28°C° 0 mm 2 m/s 755 mmHg 73%
    08:00 +29°C° 0 mm 1 m/s 756 mmHg 65%
    09:00 +31°C° 0 mm 1 m/s 756 mmHg 58%
    10:00 +31°C° 0 mm 2 m/s 755 mmHg 58%
    11:00 +31°C° 0 mm 3 m/s 755 mmHg 57%
    12:00 +32°C° 0 mm 4 m/s 754 mmHg 57%
    13:00 +32°C° 0 mm 4 m/s 754 mmHg 58%
    14:00 +32°C° 0 mm 5 m/s 753 mmHg 59%
    15:00 +32°C° 0 mm 6 m/s 753 mmHg 60%
    16:00 +30°C° 0 mm 6 m/s 752 mmHg 65%
    17:00 +30°C° 0 mm 6 m/s 752 mmHg 69%
    18:00 +29°C° 0 mm 7 m/s 752 mmHg 73%
    19:00 +29°C° 0 mm 6 m/s 753 mmHg 74%
    20:00 +28°C° 0 mm 6 m/s 753 mmHg 76%
    21:00 +28°C° 0 mm 6 m/s 754 mmHg 78%
    22:00 +27°C° 0 mm 5 m/s 754 mmHg 79%
    23:00 +27°C° 0 mm 5 m/s 754 mmHg 81%

    Mâine, 21 Ianuarie, Marţi

    Timp Temperatura Precipitaţii Vânt Presiune Umiditate
    00:00 +26°C° 0 mm 4 m/s 754 mmHg 83%
    01:00 +26°C° 0 mm 4 m/s 754 mmHg 83%
    02:00 +26°C° 0 mm 4 m/s 753 mmHg 84%
    03:00 +26°C° 0 mm 3 m/s 753 mmHg 84%
    04:00 +26°C° 0 mm 3 m/s 753 mmHg 84%
    05:00 +26°C° 0 mm 3 m/s 754 mmHg 84%
    06:00 +26°C° 0 mm 3 m/s 754 mmHg 84%
    07:00 +27°C° 0 mm 3 m/s 754 mmHg 79%
    08:00 +28°C° 0 mm 3 m/s 754 mmHg 74%
    09:00 +29°C° 0 mm 3 m/s 755 mmHg 68%
    10:00 +30°C° 0 mm 3 m/s 754 mmHg 66%
    11:00 +31°C° 0 mm 3 m/s 754 mmHg 63%
    12:00 +31°C° 0 mm 2 m/s 753 mmHg 60%
    13:00 +32°C° 0 mm 4 m/s 753 mmHg 62%
    14:00 +32°C° 0 mm 5 m/s 752 mmHg 64%
    15:00 +32°C° 0 mm 6 m/s 751 mmHg 66%
    16:00 +30°C° 0 mm 6 m/s 751 mmHg 70%
    17:00 +29°C° 0 mm 6 m/s 751 mmHg 74%
    18:00 +29°C° 0 mm 7 m/s 751 mmHg 78%
    19:00 +28°C° 0.1 mm 7 m/s 752 mmHg 79%
    20:00 +28°C° 0.1 mm 6 m/s 752 mmHg 81%
    21:00 +28°C° 0.1 mm 6 m/s 753 mmHg 82%
    22:00 +28°C° 0 mm 6 m/s 753 mmHg 83%
    23:00 +27°C° 0 mm 5 m/s 753 mmHg 83%

    Poimâine, 22 Ianuarie, Miercuri

    Timp Temperatura Precipitaţii Vânt Presiune Umiditate
    00:00 +27°C° 0 mm 5 m/s 753 mmHg 84%
    01:00 +27°C° 0.2 mm 5 m/s 753 mmHg 85%
    02:00 +27°C° 0.2 mm 5 m/s 753 mmHg 86%
    03:00 +27°C° 0.2 mm 5 m/s 753 mmHg 87%
    04:00 +27°C° 1.7 mm 5 m/s 753 mmHg 87%
    05:00 +27°C° 1.7 mm 5 m/s 753 mmHg 87%
    06:00 +27°C° 1.7 mm 6 m/s 753 mmHg 86%
    07:00 +27°C° 1.6 mm 6 m/s 753 mmHg 84%
    08:00 +28°C° 1.6 mm 6 m/s 754 mmHg 82%
    09:00 +28°C° 1.6 mm 5 m/s 754 mmHg 80%
    10:00 +29°C° 0.7 mm 5 m/s 754 mmHg 79%
    11:00 +29°C° 0.7 mm 5 m/s 753 mmHg 78%
    12:00 +29°C° 0.7 mm 5 m/s 753 mmHg 77%
    13:00 +29°C° 0.4 mm 4 m/s 753 mmHg 77%
    14:00 +29°C° 0.4 mm 4 m/s 752 mmHg 77%
    15:00 +29°C° 0.4 mm 4 m/s 752 mmHg 77%
    16:00 +29°C° 1.4 mm 3 m/s 752 mmHg 80%
    17:00 +28°C° 1.4 mm 3 m/s 752 mmHg 83%
    18:00 +27°C° 1.4 mm 3 m/s 753 mmHg 86%
    19:00 +27°C° 0.9 mm 4 m/s 753 mmHg 87%
    20:00 +27°C° 0.9 mm 4 m/s 754 mmHg 88%
    21:00 +27°C° 0.9 mm 5 m/s 754 mmHg 89%
    22:00 +26°C° 0.4 mm 5 m/s 754 mmHg 89%
    23:00 +26°C° 0.4 mm 5 m/s 754 mmHg 88%

    23 Ianuarie, Joi

    Timp Temperatura Precipitaţii Vânt Presiune Umiditate
    00:00 +26°C° 0.4 mm 4 m/s 754 mmHg 88%
    01:00 +26°C° 0.6 mm 5 m/s 754 mmHg 89%
    02:00 +26°C° 0.6 mm 6 m/s 754 mmHg 90%
    03:00 +26°C° 0.6 mm 7 m/s 753 mmHg 92%
    04:00 +24°C° 0.8 mm 6 m/s 754 mmHg 92%
    05:00 +24°C° 0.8 mm 6 m/s 754 mmHg 91%
    06:00 +25°C° 0.8 mm 5 m/s 754 mmHg 91%
    07:00 +25°C° 0.2 mm 4 m/s 755 mmHg 91%
    08:00 +25°C° 0.2 mm 4 m/s 755 mmHg 90%
    09:00 +25°C° 0.2 mm 3 m/s 755 mmHg 89%
    10:00 +26°C° 0.1 mm 3 m/s 755 mmHg 87%
    11:00 +26°C° 0.1 mm 2 m/s 755 mmHg 85%
    12:00 +27°C° 0.1 mm 2 m/s 755 mmHg 83%
    13:00 +27°C° 0 mm 2 m/s 754 mmHg 83%
    14:00 +27°C° 0 mm 2 m/s 754 mmHg 83%
    15:00 +27°C° 0 mm 2 m/s 753 mmHg 83%
    16:00 +27°C° 0 mm 1 m/s 753 mmHg 83%
    17:00 +27°C° 0 mm 1 m/s 753 mmHg 82%
    18:00 +27°C° 0 mm 1 m/s 754 mmHg 81%
    19:00 +27°C° 0 mm 1 m/s 754 mmHg 81%
    20:00 +27°C° 0 mm 1 m/s 754 mmHg 81%
    21:00 +27°C° 0 mm 1 m/s 755 mmHg 82%
    22:00 +27°C° 0.1 mm 1 m/s 755 mmHg 83%
    23:00 +27°C° 0.1 mm 1 m/s 755 mmHg 84%

    24 Ianuarie, Vineri

    Timp Temperatura Precipitaţii Vânt Presiune Umiditate
    00:00 +26°C° 0.1 mm 1 m/s 755 mmHg 85%
    01:00 +26°C° 0.5 mm 1 m/s 754 mmHg 86%
    02:00 +26°C° 0.5 mm 2 m/s 754 mmHg 87%
    03:00 +26°C° 0.5 mm 2 m/s 753 mmHg 88%
    04:00 +26°C° 0.3 mm 2 m/s 753 mmHg 89%
    05:00 +26°C° 0.3 mm 3 m/s 754 mmHg 90%
    06:00 +26°C° 0.3 mm 4 m/s 754 mmHg 91%
    07:00 +26°C° 0.1 mm 4 m/s 754 mmHg 88%
    08:00 +27°C° 0.1 mm 3 m/s 755 mmHg 85%
    09:00 +28°C° 0.1 mm 3 m/s 755 mmHg 81%
    10:00 +29°C° 0 mm 3 m/s 755 mmHg 74%
    11:00 +31°C° 0 mm 2 m/s 755 mmHg 68%
    12:00 +32°C° 0 mm 1 m/s 754 mmHg 61%
    13:00 +32°C° 0.2 mm 2 m/s 754 mmHg 65%
    14:00 +31°C° 0.2 mm 3 m/s 753 mmHg 70%
    15:00 +32°C° 0.2 mm 4 m/s 753 mmHg 75%
    16:00 +30°C° 0 mm 5 m/s 753 mmHg 77%
    17:00 +30°C° 0 mm 5 m/s 753 mmHg 80%
    18:00 +30°C° 0 mm 6 m/s 754 mmHg 83%
    19:00 +29°C° 0 mm 6 m/s 754 mmHg 84%
    20:00 +29°C° 0 mm 6 m/s 755 mmHg 85%
    21:00 +28°C° 0 mm 6 m/s 755 mmHg 86%
    22:00 +28°C° 0 mm 6 m/s 755 mmHg 86%
    23:00 +28°C° 0 mm 6 m/s 755 mmHg 86%

    25 Ianuarie, Sâmbătă

    Timp Temperatura Precipitaţii Vânt Presiune Umiditate
    00:00 +28°C° 0 mm 6 m/s 755 mmHg 86%
    01:00 +28°C° 0 mm 5 m/s 755 mmHg 87%
    02:00 +27°C° 0 mm 4 m/s 755 mmHg 88%
    03:00 +27°C° 0 mm 4 m/s 754 mmHg 89%
    04:00 +27°C° 0 mm 4 m/s 755 mmHg 89%
    05:00 +27°C° 0 mm 3 m/s 755 mmHg 89%
    06:00 +27°C° 0 mm 3 m/s 755 mmHg 88%
    07:00 +28°C° 0 mm 3 m/s 756 mmHg 82%
    08:00 +29°C° 0 mm 2 m/s 756 mmHg 76%
    09:00 +30°C° 0 mm 2 m/s 756 mmHg 69%
    10:00 +31°C° 0 mm 2 m/s 756 mmHg 67%
    11:00 +31°C° 0 mm 2 m/s 756 mmHg 65%
    12:00 +32°C° 0 mm 2 m/s 755 mmHg 63%
    13:00 +33°C° 0 mm 3 m/s 755 mmHg 65%
    14:00 +33°C° 0 mm 4 m/s 754 mmHg 66%
    15:00 +32°C° 0 mm 5 m/s 754 mmHg 68%
    16:00 +32°C° 0 mm 5 m/s 754 mmHg 71%
    17:00 +30°C° 0 mm 5 m/s 754 mmHg 74%
    18:00 +30°C° 0 mm 5 m/s 754 mmHg 78%
    19:00 +29°C° 0 mm 5 m/s 755 mmHg 79%
    20:00 +29°C° 0 mm 5 m/s 756 mmHg 81%
    21:00 +28°C° 0 mm 5 m/s 756 mmHg 82%
    22:00 +28°C° 0 mm 4 m/s 756 mmHg 83%
    23:00 +28°C° 0 mm 4 m/s 756 mmHg 84%
    Arată mai mult